Location: Kott?ru
(16.6209°N, 80.6208°E)
Time: 01:16:05
(UTC+00:00)

Meteor 1-31 Rocket - Pass Details

Date: 18 September 2020
Orbit: 521 x 546 km, 97.6° (Epoch: 26 October)

Event Time Altitude Azimuth Distance (km) Brightness Sun altitude
Rises 23:22:34 0° 4° (N) 2,656 6.4 -16.0°
Reaches altitude 10° 23:24:41 10° 359° (N) 1,770 5.5 -15.5°
Maximum altitude 23:28:24 53° 283° (WNW) 657 2.8 -14.6°
Drops below altitude 10° 23:32:09 10° 205° (SSW) 1,781 5.1 -13.7°
Sets 23:34:18 0° 201° (SSW) 2,674 6.1 -13.2°
